EW8956 Weather Reports


time (UTC)temp
C
wind
direction
speed
KPH
gust
KPH
rain 1hr
cm
rain 24hr
cm
rain mn
cm
humidity
%
barometer
mb
20260503013053 10 0 0.0 0.0 0.00 0.00 0.00 65 1014.8
20260503011553 11 0 0.0 1.6 0.00 0.00 0.00 71 1014.5
20260503010103 12 0 0.0 0.0 0.00 0.00 0.00 57 1014.2
20260503004551 12 0 0.0 0.0 0.00 0.00 0.00 57 1013.9
20260503003059 12 0 0.0 1.6 0.00 0.00 0.00 52 1013.6
20260503001556 12 0 0.0 1.6 0.00 0.00 0.00 51 1013.7
20260503000110 12 0 0.0 1.6 0.00 0.00 0.00 51 1013.6
20260502234555 13 0 0.0 4.8 0.00 0.00 0.00 51 1013.3
20260502233050 13 0 0.0 1.6 0.00 0.00 0.00 50 1013.1
20260502231549 13 145 0.0 3.2 0.00 0.00 0.00 48 1012.7
20260502230050 13 0 0.0 3.2 0.00 0.00 0.00 45 1012.8
20260502224549 14 0 0.0 1.6 0.00 0.00 0.00 45 1012.5
20260502223049 14 0 0.0 3.2 0.00 0.00 0.00 44 1012.5
20260502221546 14 0 1.6 8.0 0.00 0.00 0.00 42 1012.1
20260502220051 14 0 0.0 4.8 0.00 0.00 0.00 44 1011.9
20260502214558 15 0 1.6 11.3 0.00 0.00 0.00 44 1011.9
20260502213047 15 298 0.0 11.3 0.00 0.00 0.00 45 1011.8
20260502211553 15 119 1.6 11.3 0.00 0.00 0.00 41 1011.8
20260502210043 14 0 0.0 11.3 0.00 0.00 0.00 41 1011.9
20260502204554 14 133 0.0 6.4 0.00 0.00 0.00 42 1012.1
20260502203113 13 118 3.2 9.7 0.00 0.00 0.00 41 1012.1
20260502201552 13 130 1.6 6.4 0.00 0.00 0.00 40 1012.3
20260502200052 13 115 1.6 12.9 0.00 0.00 0.00 43 1012.5
20260502194559 14 0 0.0 4.8 0.00 0.00 0.00 38 1012.9
20260502193042 13 127 1.6 8.0 0.00 0.00 0.00 42 1013.0
20260502191558 13 101 0.0 4.8 0.00 0.00 0.00 44 1013.2
20260502190054 13 0 0.0 3.2 0.00 0.00 0.00 43 1013.4
20260502184545 13 0 0.0 3.2 0.00 0.00 0.00 45 1013.5
20260502183048 13 0 0.0 3.2 0.00 0.00 0.00 44 1013.5
20260502181607 13 0 0.0 4.8 0.00 0.00 0.00 48 1013.5
20260502080103 11 0 0.0 1.6 0.00 0.00 0.00 81 1013.0
20260502070049 11 0 0.0 0.0 0.00 0.00 0.00 81 1012.7
20260502064556 11 0 0.0 0.0 0.00 0.00 0.00 81 1012.8
20260502063048 11 0 0.0 1.6 0.00 0.00 0.00 81 1013.2
20260502061551 11 0 0.0 3.2 0.00 0.00 0.00 81 1013.3
20260502060046 11 0 0.0 3.2 0.00 0.00 0.00 81 1013.4
20260502054543 11 0 0.0 0.0 0.00 0.00 0.00 80 1012.9
20260502053047 11 0 0.0 0.0 0.00 0.00 0.00 81 1012.8
20260502051543 11 0 0.0 0.0 0.00 0.00 0.00 85 1013.0
20260502050044 11 0 0.0 0.0 0.00 0.00 0.00 79 1013.1
20260502044549 11 0 0.0 0.0 0.00 0.00 0.00 79 1013.2
20260502043045 11 0 0.0 1.6 0.00 0.00 0.00 78 1013.2
20260502041544 11 0 0.0 0.0 0.00 0.00 0.00 78 1013.2
20260502040057 12 0 0.0 0.0 0.00 0.00 0.00 77 1013.3
20260502034551 12 0 0.0 1.6 0.00 0.00 0.00 76 1013.4
20260502033040 12 0 0.0 4.8 0.00 0.00 0.00 76 1013.5
20260502031555 12 0 0.0 1.6 0.00 0.00 0.00 75 1013.6
20260502030047 12 229 0.0 3.2 0.00 0.00 0.00 75 1013.6
20260502024545 12 0 0.0 1.6 0.00 0.00 0.00 75 1013.7
20260502023050 12 0 0.0 6.4 0.00 0.00 0.00 74 1013.5
20260502021544 12 165 0.0 4.8 0.00 0.00 0.00 74 1013.6
20260502020105 12 0 0.0 6.4 0.00 0.00 0.00 73 1013.4
20260502014550 13 0 0.0 4.8 0.00 0.00 0.00 73 1013.7